Theta_e
306 306 306 306 307 307 307 307 307 307 307 307 307 307 307 307 306 306 306 306 306 306 306 306 306 307 307 306 306 304 301 300 302 305 309 309 306 310 312 312 312 310 309 309 308 307 307 307 307 309 310 312 315 316 314 314 314 316 319 318 316 316 318 321 323 323 323 324 324 323 323 323 323 324 325 325 327 331 337 342 346 348 348 347 345 341 341 343
305 305 306 306 306 307 307 307 307 307 307 307 307 307 307 307 307 307 306 306 306 306 306 306 306 307 306 306 305 303 302 302 305 307 310 309 308 309 310 309 308 307 307 306 307 306 308 310 308 308 310 313 315 316 314 314 314 315 319 318 315 317 319 323 324 323 325 324 324 324 323 323 323 325 325 325 326 332 344 349 350 352 350 345 342 340 342 343
305 305 306 306 307 307 307 307 307 307 307 307 307 307 307 307 307 307 306 306 307 306 306 306 306 306 306 306 304 302 303 304 310 314 313 312 310 308 305 304 304 306 306 305 306 307 308 309 308 308 310 312 314 315 315 315 315 314 316 317 316 317 319 323 324 323 324 324 324 323 323 323 323 324 324 325 325 331 345 354 354 352 349 344 341 341 343 343
306 306 306 306 306 306 307 307 307 307 307 307 307 307 307 307 307 307 306 307 307 306 306 306 306 306 306 306 303 303 304 307 315 316 311 311 308 305 304 302 305 306 306 306 307 308 308 307 308 309 310 313 314 313 314 314 315 315 316 315 316 318 318 321 323 323 323 324 324 323 323 323 323 323 324 325 325 326 336 351 357 352 347 344 341 342 343 343
306 306 306 306 306 306 306 306 306 306 306 307 306 307 307 307 307 307 306 306 307 307 306 306 306 306 306 305 302 303 305 307 313 313 308 309 306 306 305 303 305 306 306 307 308 308 309 308 308 309 311 315 315 313 313 314 314 315 315 315 317 318 319 319 321 322 322 323 322 322 323 323 324 324 324 325 325 325 327 338 351 350 346 343 341 342 343 344
305 306 306 306 306 306 306 306 306 306 306 306 306 306 306 307 306 306 306 306 306 306 306 306 306 306 306 304 303 305 307 305 309 311 310 309 306 306 305 304 305 306 306 306 308 308 309 309 308 310 312 315 316 314 313 313 314 315 315 316 317 318 318 318 320 321 321 322 321 322 322 323 324 324 325 324 324 325 325 332 345 347 344 342 340 342 345 346
305 305 306 306 306 306 306 305 306 305 305 305 305 306 306 306 306 306 306 306 306 306 306 306 305 306 305 303 304 306 308 309 307 307 311 310 306 306 305 304 304 305 306 306 307 307 308 308 308 310 312 313 315 315 314 313 314 314 315 316 316 317 317 318 319 320 320 320 320 321 323 323 324 324 325 325 324 326 326 330 345 346 343 342 340 343 346 346
305 305 305 305 305 305 305 305 305 305 305 305 305 305 305 305 306 305 305 305 306 306 306 306 305 305 304 304 305 307 309 310 304 305 311 308 305 305 304 305 304 305 306 306 306 305 306 307 308 310 311 313 314 315 314 314 314 313 314 315 316 317 317 318 318 318 319 319 319 320 322 323 324 324 324 324 323 326 325 330 345 346 342 342 342 344 347 346
304 305 305 305 305 304 305 305 305 305 305 305 305 305 305 305 305 305 305 305 305 306 305 305 305 305 304 304 304 308 310 308 306 308 309 306 305 305 305 305 304 305 305 305 304 304 305 307 308 310 311 312 312 313 313 314 315 314 314 315 316 316 316 318 317 318 318 318 318 319 321 323 324 323 324 325 324 325 323 333 347 346 343 344 344 345 347 347
304 304 304 304 305 304 304 305 305 305 305 305 305 305 305 305 305 305 305 305 305 305 305 305 305 305 304 304 304 307 307 307 309 310 308 305 305 306 306 305 305 305 304 304 303 303 305 306 307 308 309 309 311 313 313 314 315 314 314 313 315 316 316 317 317 318 318 318 319 318 320 322 324 323 324 328 329 324 321 334 347 346 345 346 345 346 346 347
304 304 304 304 304 304 304 304 304 305 304 304 304 304 305 305 305 305 304 305 304 302 303 305 305 305 304 304 305 307 305 306 308 307 305 302 303 305 306 305 305 305 304 304 303 303 304 305 306 306 308 308 309 312 313 314 314 314 314 313 314 315 316 316 317 317 317 319 319 318 318 320 322 322 323 325 329 329 324 333 346 346 346 347 346 346 345 346
303 303 304 304 304 304 304 304 304 304 304 304 304 304 304 305 305 304 304 304 302 301 302 304 306 305 305 304 303 306 302 303 304 303 302 301 303 305 306 306 305 304 304 303 303 303 304 304 305 305 307 307 307 310 312 312 311 313 314 314 313 313 315 316 316 317 317 318 319 319 317 317 320 321 322 323 325 333 331 333 343 347 346 347 347 346 346 346
303 303 303 303 304 304 303 304 304 304 304 304 304 304 304 304 304 304 304 303 302 301 302 304 306 305 304 304 303 302 301 302 302 303 303 302 303 305 305 306 305 305 305 304 303 304 304 304 304 304 306 305 305 308 311 309 310 313 314 314 313 312 314 315 316 316 317 318 318 318 315 315 319 319 322 327 327 330 330 331 340 346 346 347 348 347 347 346
303 303 303 303 303 303 303 303 303 304 304 304 304 304 304 304 304 303 304 304 303 302 304 305 306 306 305 304 304 302 303 305 304 305 305 304 304 305 305 305 305 305 305 304 305 304 304 304 304 304 305 306 307 308 309 310 312 313 314 313 313 312 312 314 316 316 317 317 318 318 313 315 319 319 320 328 333 330 325 328 336 344 345 347 349 349 349 348
303 303 303 303 303 303 303 303 303 303 304 304 304 304 304 305 305 305 305 304 303 303 304 306 306 305 305 304 304 304 305 308 308 306 305 305 305 306 305 305 305 305 305 305 305 304 304 304 304 305 305 306 307 308 310 311 313 313 315 315 312 311 312 314 316 316 317 316 317 317 313 316 319 319 320 323 333 335 328 325 330 339 343 346 350 350 350 350
302 302 302 302 302 302 302 303 303 303 304 304 304 305 306 306 306 306 305 303 303 303 304 306 305 304 306 307 306 305 307 309 309 306 306 306 305 306 306 306 305 305 305 304 304 304 304 305 305 306 306 306 307 308 311 313 315 315 315 316 313 311 311 313 315 316 316 316 317 316 314 317 319 320 321 320 330 336 332 327 330 336 341 345 348 349 351 353
302 302 302 302 302 302 302 303 303 303 304 304 305 306 306 306 307 306 304 303 304 304 305 305 304 304 307 309 307 307 307 308 307 306 307 306 306 307 306 306 305 304 304 304 304 304 304 305 306 307 306 306 308 309 312 314 315 315 315 316 314 311 311 311 314 315 316 316 317 317 316 317 319 321 321 321 329 334 331 327 332 337 338 342 346 348 352 354
302 302 302 302 302 302 302 302 303 303 304 305 306 306 306 306 306 306 305 305 306 306 307 306 305 308 309 308 308 308 307 307 307 307 307 307 307 307 307 305 303 304 303 304 305 304 305 306 306 307 306 307 307 308 312 314 314 315 316 316 315 313 311 311 313 315 315 316 316 316 316 316 319 323 323 325 331 334 331 328 333 337 337 341 345 349 353 354
301 301 301 301 301 302 302 302 303 303 304 305 306 306 306 305 305 307 306 306 308 309 310 308 307 312 311 307 308 307 307 308 307 306 306 306 306 306 306 304 304 303 303 304 305 305 305 306 306 307 306 306 306 306 309 311 312 314 314 315 314 313 311 311 312 315 316 316 316 316 316 316 317 320 323 327 330 329 330 330 332 336 339 341 345 350 353 354
301 301 301 301 301 301 302 302 302 304 304 305 306 306 306 305 306 308 306 304 306 307 308 307 306 308 308 306 307 307 307 307 306 306 305 305 305 305 304 304 304 303 303 303 304 305 305 306 307 306 305 305 305 305 306 308 310 311 313 313 313 313 312 311 312 315 315 315 315 316 316 317 317 318 321 325 326 325 326 328 330 334 340 343 347 350 353 354
300 301 301 301 301 301 301 301 303 305 305 305 306 306 307 305 306 306 305 305 305 304 304 304 304 305 306 306 306 306 306 305 306 306 306 305 304 304 304 304 303 303 303 302 303 304 304 305 306 305 305 305 305 306 306 307 308 309 311 312 313 313 313 312 312 313 315 315 315 317 316 316 317 318 320 321 322 322 323 326 327 329 336 342 347 351 353 354
301 301 301 301 301 301 301 302 304 305 305 305 305 306 306 304 305 305 305 305 305 304 304 304 304 304 304 305 305 305 305 306 306 306 306 306 304 304 304 303 304 303 303 302 302 303 303 304 304 304 305 305 305 305 306 306 307 308 309 310 312 313 313 314 313 312 314 314 315 317 315 316 317 318 320 320 320 320 322 326 328 326 330 337 343 349 355 356
300 300 300 300 301 301 301 303 305 305 304 305 305 305 305 304 305 305 305 306 306 305 304 304 305 304 304 305 305 305 305 306 306 306 306 305 304 304 304 304 304 304 303 302 302 303 304 304 303 303 304 305 305 305 305 306 306 307 308 309 310 311 312 314 313 312 313 314 315 316 315 316 317 317 318 320 319 320 323 328 331 329 328 332 337 345 354 355
300 300 300 300 301 301 302 303 305 305 305 305 305 305 305 305 306 305 306 307 306 305 304 305 305 305 305 306 306 306 306 306 306 306 306 305 304 304 304 304 304 303 303 303 303 303 303 303 303 304 304 304 305 305 305 306 306 307 307 308 309 310 311 313 313 312 313 314 315 315 313 314 316 317 317 318 319 319 321 324 329 330 328 328 333 341 350 353
300 300 300 300 301 301 303 304 305 305 305 306 305 305 305 306 305 306 306 307 309 308 306 306 306 305 305 306 306 306 305 305 306 306 306 305 305 304 304 303 303 303 303 303 304 303 303 303 303 303 304 305 305 305 305 306 306 307 307 308 308 309 310 311 312 313 313 313 314 314 312 312 315 317 316 318 318 318 319 321 325 328 328 328 331 340 349 352
300 300 300 300 301 301 304 306 305 305 306 305 305 306 306 306 306 306 307 309 313 311 307 306 306 305 304 305 306 305 305 306 305 305 305 305 305 305 304 304 303 303 303 304 304 304 303 303 303 303 303 304 304 305 305 306 306 307 307 308 309 309 309 310 310 312 313 313 314 313 312 312 314 315 316 318 318 318 319 321 323 326 328 329 331 340 349 351
300 300 300 300 301 301 303 306 305 305 307 306 306 307 306 306 306 305 308 311 312 308 306 305 305 305 304 305 306 305 306 308 306 305 305 305 305 305 304 304 304 303 303 304 304 303 303 303 303 303 302 302 303 304 306 306 306 307 307 308 309 309 309 309 309 309 312 312 312 312 311 311 312 315 318 317 317 318 318 319 322 326 327 327 334 343 349 350
300 300 299 300 301 302 302 304 304 304 307 307 306 307 306 306 306 306 311 315 312 306 306 306 306 306 304 306 306 305 306 306 306 307 305 305 305 305 304 304 303 303 303 303 303 303 303 303 303 302 302 302 301 303 305 306 306 306 307 308 309 309 310 309 309 309 309 311 311 311 311 312 312 316 320 317 317 317 318 318 319 324 326 326 335 344 347 349
300 299 299 300 302 304 304 303 304 305 307 306 306 307 306 306 306 308 312 315 310 306 307 307 308 308 306 307 307 307 307 306 306 308 306 306 306 305 305 304 303 303 303 303 302 302 302 303 303 303 303 302 302 303 304 306 307 307 308 308 308 308 309 309 309 309 309 311 312 311 311 312 312 314 317 315 315 316 318 319 317 322 325 325 334 344 347 347
299 299 300 301 303 305 305 304 305 307 307 306 306 306 306 307 308 312 314 312 309 308 309 309 309 308 308 308 308 307 308 307 306 307 306 306 307 307 307 305 304 304 303 303 302 302 302 303 304 303 303 303 303 303 303 305 307 308 307 307 308 308 308 310 310 309 310 311 311 311 311 312 313 313 314 315 316 316 317 319 318 321 323 324 329 340 345 346
298 300 301 302 304 304 304 306 307 307 307 307 306 306 307 309 310 313 314 310 309 310 310 310 309 308 309 309 309 308 308 308 308 308 308 308 308 310 310 307 306 306 305 304 303 303 302 303 303 303 304 304 303 303 303 304 306 308 308 308 308 309 309 310 311 311 312 311 310 311 311 312 312 313 315 316 317 317 317 318 320 319 321 322 324 334 343 345
299 302 302 303 305 304 305 307 308 307 307 306 306 307 309 312 312 312 312 310 311 312 311 310 309 309 309 309 308 308 308 309 310 309 309 309 310 310 309 308 307 306 304 304 304 304 303 303 302 303 304 304 303 303 302 302 304 306 307 309 310 310 311 311 312 313 313 312 311 311 311 312 313 314 316 317 317 318 318 317 319 319 319 321 321 328 340 344
301 304 304 305 306 306 307 308 308 308 307 306 307 308 311 315 315 312 311 312 312 311 310 310 310 310 309 310 310 309 309 310 310 310 309 309 310 310 309 307 306 305 304 304 304 304 304 303 302 302 303 303 303 302 302 303 305 306 306 309 310 310 312 313 312 313 313 312 311 310 311 313 312 314 318 316 316 318 319 318 318 319 319 321 321 324 336 343
302 305 306 307 307 308 309 308 308 308 306 306 309 311 312 314 314 312 312 312 310 310 311 311 311 310 309 310 312 310 310 311 310 310 309 309 310 311 310 307 305 304 303 304 305 304 304 305 304 302 302 303 303 302 303 303 304 306 306 308 310 310 311 313 314 314 314 314 312 310 316 317 314 320 324 316 315 318 318 319 319 319 318 319 321 323 333 342
304 305 307 307 308 309 309 308 308 307 306 308 310 313 314 312 312 313 313 312 310 311 310 310 310 310 310 311 311 309 309 310 309 308 310 310 310 311 309 307 306 304 304 305 305 304 303 304 304 303 303 304 304 304 304 304 307 309 308 307 310 310 311 315 318 318 316 317 315 312 317 321 319 326 327 317 316 316 316 318 318 319 319 319 321 323 332 341
304 307 307 308 309 310 309 309 308 307 306 309 312 314 314 312 311 313 313 311 311 311 311 311 311 310 311 311 311 308 307 309 308 307 310 309 308 309 308 306 306 304 305 306 306 305 304 305 306 306 306 305 305 306 305 306 312 315 312 310 310 309 311 315 319 321 317 319 318 312 315 318 314 320 323 317 317 316 316 317 316 319 319 320 323 324 332 340
305 307 307 308 309 309 308 308 307 307 308 309 311 313 313 311 311 313 313 312 311 310 311 312 311 309 310 312 311 308 308 310 308 308 311 309 308 309 306 306 306 304 305 305 305 309 308 306 307 307 306 306 307 309 308 306 309 313 312 312 311 311 313 313 318 322 319 319 319 313 314 315 313 323 329 321 317 316 316 316 316 318 318 320 323 326 334 341
305 306 307 308 309 309 308 308 307 307 308 309 311 312 312 312 312 312 313 313 312 310 311 313 312 310 310 311 311 309 309 311 310 309 310 308 309 310 306 306 306 304 305 303 305 311 309 305 309 307 305 308 309 309 311 308 307 309 311 312 312 313 314 313 316 321 320 321 320 315 315 313 313 322 326 319 318 318 317 317 316 317 318 319 322 327 335 341
304 308 311 310 309 309 308 307 307 308 309 310 312 313 313 312 312 311 313 313 311 310 311 312 311 311 310 311 312 310 309 311 311 309 309 308 310 311 307 306 306 304 304 303 304 313 315 312 315 313 308 311 313 310 312 312 309 310 311 312 312 313 314 314 315 320 323 326 326 319 316 313 314 322 322 319 322 320 316 318 318 316 318 321 323 327 334 340
304 310 314 309 308 309 307 306 308 309 310 311 312 312 312 311 311 311 314 313 311 311 312 311 310 310 311 311 312 311 310 311 311 310 309 308 309 311 308 306 307 305 305 303 304 314 319 315 316 315 310 313 316 314 313 312 311 313 313 312 313 313 314 314 315 315 319 328 330 323 320 319 320 326 327 320 322 323 320 321 321 319 320 324 326 327 332 338
304 311 313 308 308 309 307 310 311 309 309 311 312 312 311 311 311 313 315 313 311 312 312 310 310 311 311 311 311 311 311 312 312 311 310 309 310 313 312 308 306 306 304 303 306 314 318 315 314 316 314 314 315 313 311 311 312 314 316 315 314 315 315 315 317 316 312 321 328 325 324 327 324 323 326 323 321 322 321 323 325 323 321 323 327 328 331 336
306 313 312 309 308 308 310 313 312 310 311 313 314 312 311 312 312 313 314 312 310 311 311 310 310 311 311 311 311 311 312 312 312 313 312 310 310 313 315 310 307 307 304 305 309 314 316 316 314 314 313 312 311 310 310 312 312 312 314 314 313 314 314 314 320 326 321 319 323 322 320 327 331 325 322 321 324 322 321 323 325 325 323 324 326 327 330 334
307 309 309 308 308 308 311 313 312 312 313 314 314 312 311 312 313 312 313 314 312 311 311 311 310 310 310 309 309 310 311 312 312 312 313 311 310 310 312 310 308 307 306 310 316 316 314 316 315 314 314 313 312 311 311 314 316 317 318 316 313 314 314 314 319 326 327 324 323 322 320 327 340 337 323 317 322 322 322 324 323 326 328 327 326 326 329 331
304 304 307 309 308 308 312 313 313 312 312 312 311 310 310 311 312 312 312 315 317 312 310 312 311 311 311 309 308 309 310 312 312 311 312 312 311 311 310 309 308 308 309 313 317 315 313 315 315 314 316 315 313 313 314 319 322 321 322 319 315 313 313 315 316 318 324 327 322 321 324 326 329 330 325 324 324 321 322 325 326 329 333 331 327 327 328 331
304 306 309 310 308 309 312 313 312 311 311 310 309 309 310 310 311 313 312 315 318 313 311 314 312 311 311 309 309 309 309 312 313 313 312 312 313 313 310 308 308 309 310 312 314 313 314 316 314 315 318 317 316 317 319 322 321 318 318 316 313 313 313 315 317 316 322 327 322 321 326 324 321 322 326 329 329 328 329 330 329 331 334 333 330 329 331 334
308 310 310 310 309 310 312 312 310 309 309 308 308 308 310 310 310 312 311 312 316 314 313 314 312 311 312 311 311 311 311 312 313 313 314 313 314 314 313 311 309 308 310 312 312 311 314 317 315 315 318 318 320 320 319 319 319 318 317 315 314 314 313 315 317 317 321 324 322 326 328 323 323 325 328 330 331 337 340 337 335 334 332 332 330 331 334 338
307 308 307 306 307 308 310 309 307 305 305 306 308 309 310 311 311 311 308 308 314 314 312 312 311 312 314 313 312 312 312 312 313 314 315 316 316 314 314 314 312 311 312 313 312 313 315 317 316 315 316 317 318 317 315 315 318 317 315 315 316 315 315 318 317 318 324 324 324 334 333 326 328 332 332 332 331 334 338 340 342 339 333 333 333 333 337 341
304 306 304 302 304 306 306 305 304 304 303 305 309 311 311 311 311 309 307 307 312 312 311 313 313 313 314 313 311 312 313 314 315 316 317 318 318 317 317 317 315 314 314 314 312 313 316 319 318 314 315 316 315 315 314 314 316 315 314 316 318 318 318 319 318 319 324 325 329 337 331 325 333 338 336 333 329 329 333 335 340 340 335 336 338 338 341 344
302 304 303 300 302 304 302 302 303 304 305 306 310 312 310 310 309 307 307 307 310 311 312 314 313 313 315 313 310 312 314 315 317 316 316 318 318 318 320 321 319 317 317 315 313 312 316 320 319 316 317 318 317 315 316 316 316 316 316 316 317 318 318 319 319 319 322 325 332 334 325 326 338 340 334 332 330 327 328 330 335 340 341 343 343 342 343 345
301 302 302 301 301 302 302 303 304 304 305 306 308 308 307 307 308 307 306 307 309 310 311 311 309 309 313 313 310 311 314 315 315 313 314 316 317 317 320 320 319 318 316 315 315 313 313 316 319 320 320 320 319 318 318 317 317 319 319 318 318 318 318 320 321 320 319 321 324 326 325 332 344 345 337 332 330 328 328 331 336 339 343 347 347 345 345 346
301 301 301 301 301 302 303 303 302 303 306 307 306 306 306 307 307 306 306 308 309 308 307 307 307 309 314 315 313 313 313 312 311 310 311 313 315 316 317 317 317 317 317 317 316 314 312 315 322 324 322 322 322 320 319 319 319 320 322 320 319 319 319 320 320 319 318 322 324 326 327 333 340 343 338 334 335 334 331 336 341 340 342 347 348 347 347 346
301 301 302 301 301 302 303 302 301 303 306 306 304 304 305 305 305 305 306 308 307 306 305 306 308 311 314 315 315 314 313 313 313 311 311 312 313 313 313 315 316 316 317 318 317 316 317 321 326 326 323 324 323 319 321 322 320 322 324 321 318 319 320 321 322 322 322 324 326 328 330 333 334 335 333 333 338 338 335 339 342 338 337 343 347 345 345 346
Wind_Speed
16 16 16 15 15 16 16 16 16 16 17 17 17 18 18 18 19 19 19 20 20 21 22 23 24 26 26 28 28 28 32 31 28 25 16 9 8 8 8 8 11 13 15 16 15 11 10 8 8 12 8 3 2 3 4 5 2 2 3 5 6 6 6 6 7 6 4 4 7 8 4 6 8 9 6 5 6 4 4 8 7 4 6 12 22 30 31 32
16 16 16 16 16 16 16 16 16 17 17 17 17 17 18 18 19 19 19 19 20 21 22 23 24 26 27 27 27 28 31 29 24 20 15 9 7 7 5 6 8 11 12 10 7 4 4 4 7 11 5 2 3 3 4 4 4 5 4 6 8 6 5 5 8 6 5 7 6 8 8 10 8 3 7 6 5 5 6 5 7 5 8 13 24 30 31 34
16 16 16 16 17 16 17 17 17 17 17 18 18 19 19 19 19 19 19 19 20 21 21 22 24 25 26 27 27 28 27 21 14 10 6 2 4 3 1 4 5 7 7 4 2 2 2 5 8 7 2 2 3 4 4 4 5 6 5 7 7 5 4 5 8 8 8 7 6 10 12 13 11 5 4 6 4 4 6 6 2 1 9 14 18 23 29 30
16 16 16 17 17 17 17 18 17 17 18 18 18 19 19 20 20 20 20 20 20 21 21 22 23 24 26 27 26 25 19 10 4 3 2 8 7 5 3 4 4 3 3 2 2 2 4 7 7 3 1 3 3 4 5 6 5 4 7 9 5 5 5 6 8 10 10 9 9 12 12 12 10 6 6 5 5 3 5 8 8 9 13 15 15 19 24 25
16 16 17 17 17 17 17 17 17 17 18 18 18 18 18 19 20 20 20 20 20 21 22 22 23 24 25 26 25 19 10 3 2 1 3 6 4 3 4 6 3 1 4 5 3 3 5 5 2 0 2 2 2 3 6 8 5 3 8 9 6 6 5 7 9 10 11 11 13 13 11 9 5 5 8 8 8 7 6 7 12 15 16 18 18 18 18 19
16 17 17 17 17 17 17 18 18 19 19 19 20 20 19 20 20 20 19 20 20 20 21 22 24 24 25 27 21 8 1 1 3 2 3 2 2 3 5 6 3 2 5 7 6 5 5 2 1 0 1 1 4 5 7 8 6 6 9 8 8 8 7 6 7 9 11 12 13 11 11 9 5 7 8 8 9 8 9 8 12 16 20 23 20 17 16 16
17 17 17 18 18 18 19 20 20 21 21 21 21 21 21 21 21 21 20 20 20 19 20 20 22 23 26 27 14 2 2 5 11 7 6 3 1 2 3 5 4 4 6 7 6 4 3 3 1 1 1 2 4 6 5 6 8 10 10 9 8 10 12 9 7 7 9 11 12 8 10 12 12 11 9 12 11 9 8 8 14 16 16 21 20 18 19 19
17 18 18 19 19 20 21 21 22 22 23 23 23 23 23 23 22 22 22 20 20 20 19 19 21 20 22 22 10 2 2 9 14 9 7 5 1 1 3 4 4 5 7 8 7 5 2 4 3 2 2 3 4 6 6 5 8 13 13 10 8 10 12 11 10 10 9 8 7 6 10 13 13 11 10 12 10 11 10 9 14 13 10 15 19 20 18 17
19 19 20 21 21 21 22 22 23 23 23 23 24 23 23 23 23 23 22 22 21 19 19 19 19 18 18 15 5 2 5 7 10 4 7 5 1 1 2 4 5 7 9 10 10 7 2 2 3 2 2 4 5 7 7 4 5 11 13 11 9 10 10 10 11 12 11 10 7 7 11 13 11 10 11 11 11 10 11 12 17 17 16 17 17 18 18 17
20 20 20 21 22 22 23 23 24 23 24 24 24 24 23 23 22 22 22 22 21 20 20 18 16 16 15 10 2 2 4 1 2 7 6 4 6 7 7 5 6 7 8 11 11 7 3 3 4 3 3 4 4 6 7 6 6 8 9 9 11 11 9 9 12 13 11 12 12 10 10 12 10 9 9 10 15 18 9 13 20 21 20 18 16 17 18 18
20 20 21 22 22 23 23 24 24 25 25 25 25 25 24 24 23 22 20 21 21 19 18 16 14 13 11 6 1 4 4 4 6 7 7 16 15 13 13 10 6 7 9 10 12 11 8 8 7 3 3 2 4 6 6 7 7 9 9 9 10 12 10 10 13 16 12 11 15 13 11 12 11 11 12 12 16 19 11 14 21 21 19 18 18 17 15 15
20 21 22 22 23 23 24 24 25 26 26 27 28 27 26 25 24 23 21 21 20 17 14 13 11 9 10 5 7 13 10 8 11 16 22 20 15 14 14 13 10 9 10 8 12 16 14 11 8 3 2 3 5 5 5 6 6 7 6 6 9 10 12 14 13 15 14 13 16 14 11 11 13 16 18 16 16 16 10 13 21 20 17 16 15 14 12 13
21 22 22 23 23 24 25 26 26 28 28 29 29 28 27 26 25 23 22 20 17 12 11 10 7 7 7 4 12 22 21 20 23 26 25 17 14 14 11 12 13 12 13 12 14 18 17 14 8 3 3 3 3 3 7 9 6 6 4 3 6 7 9 14 15 15 15 13 17 15 10 10 14 18 19 16 16 18 14 12 19 18 14 14 13 13 13 13
22 22 22 23 24 25 26 26 27 28 29 30 29 28 28 27 25 22 19 15 11 8 8 8 5 5 5 8 18 21 19 21 23 24 21 15 13 13 12 12 14 15 17 18 19 18 17 17 10 4 3 2 3 5 7 7 3 3 5 3 4 5 7 12 15 18 17 12 14 14 11 11 13 15 16 13 13 15 16 12 15 16 14 13 12 12 13 13
22 23 23 23 24 25 26 27 27 28 29 28 28 29 29 26 22 17 12 9 6 4 6 6 5 4 3 10 17 15 12 13 17 17 13 13 12 10 12 14 15 18 19 20 21 19 17 14 7 3 3 2 3 5 5 4 2 1 3 4 5 7 8 10 14 18 18 13 13 13 11 12 13 14 13 11 11 10 13 12 11 15 15 14 12 10 10 10
23 23 23 24 25 26 26 27 27 27 27 26 28 28 25 21 15 9 5 2 1 1 3 3 5 5 2 6 10 11 8 7 11 14 11 11 13 11 12 14 15 18 18 20 22 19 15 9 3 2 2 3 2 2 2 4 3 1 3 5 7 10 9 8 11 16 20 15 13 14 11 10 11 14 12 8 9 10 10 10 10 15 15 14 13 12 11 9
23 24 24 24 25 25 26 27 26 25 25 25 27 25 20 18 11 4 4 4 1 2 3 0 4 6 4 8 8 9 7 5 12 17 11 9 11 13 13 10 8 9 9 12 16 14 9 5 3 3 2 2 2 2 1 4 5 3 3 5 8 11 11 9 9 13 18 17 14 14 14 13 8 10 15 11 9 10 11 11 9 14 14 14 12 12 12 11
24 24 24 25 25 25 26 26 24 23 22 23 25 22 15 16 11 4 7 6 4 4 2 1 2 2 3 6 6 9 12 14 21 18 10 8 9 14 14 8 2 5 6 4 6 7 4 2 2 3 2 3 3 4 5 8 8 7 6 4 6 10 11 11 11 11 15 17 16 14 15 16 11 8 12 12 8 9 11 11 8 12 15 14 13 12 12 13
24 24 24 25 25 25 25 24 22 20 20 21 23 19 12 13 9 4 6 7 4 1 2 2 2 1 5 9 10 14 21 22 22 16 6 8 7 9 10 7 3 3 2 2 2 3 3 1 2 3 4 5 7 8 10 11 10 8 6 4 5 8 9 10 10 9 12 14 14 14 14 15 13 11 9 9 7 8 9 8 7 10 13 13 13 12 12 14
23 24 24 24 25 25 25 23 19 16 19 20 22 17 9 9 5 0 6 7 4 6 7 7 6 6 10 14 15 17 24 23 16 13 9 4 4 3 3 3 1 1 2 1 2 3 2 3 3 5 7 8 8 8 10 11 9 8 7 6 7 7 7 8 9 10 10 11 12 14 16 17 15 13 11 9 7 7 8 7 7 9 11 12 14 14 15 16
24 24 24 24 25 25 25 23 16 14 16 18 19 10 4 7 5 4 9 7 8 10 12 13 13 14 15 17 19 16 15 17 15 15 17 10 2 1 2 1 1 2 3 3 2 3 1 3 5 8 9 9 8 7 8 10 10 9 8 7 7 7 7 7 9 11 10 8 11 15 18 20 17 12 11 12 10 9 10 8 8 11 12 11 12 14 16 13
24 24 24 25 25 26 25 21 14 13 14 15 14 6 4 10 9 8 9 6 9 7 10 13 14 15 18 21 25 16 5 10 15 14 14 9 1 3 1 2 2 3 3 3 3 3 3 4 9 11 9 8 8 8 9 10 9 9 7 7 7 5 6 9 10 11 12 7 7 15 19 20 18 13 11 13 14 12 11 10 10 12 13 12 13 13 11 8
24 24 25 25 26 26 24 18 11 11 13 15 13 8 9 14 13 14 9 3 8 6 5 8 8 9 11 15 18 12 6 8 8 10 12 6 2 5 2 2 3 4 3 3 4 4 3 6 10 10 8 8 9 10 11 10 7 7 7 7 8 7 5 5 8 9 11 10 9 11 14 15 15 13 11 12 13 14 13 13 11 11 13 15 16 14 13 12
24 24 25 25 26 24 21 15 9 10 13 13 11 8 12 16 15 16 8 2 5 7 4 6 6 5 6 9 8 7 7 6 5 8 10 5 2 3 4 4 5 5 4 4 5 4 7 9 8 7 7 9 11 11 11 8 6 7 9 8 9 10 8 6 8 9 7 10 14 12 10 9 10 11 12 10 11 15 16 13 11 10 12 14 15 15 15 16
25 25 25 25 24 22 17 10 8 12 12 8 7 9 13 15 15 14 6 0 3 5 4 3 3 2 5 7 6 7 5 5 6 8 8 7 5 3 3 4 4 6 6 6 5 4 8 10 7 7 8 10 11 11 11 8 6 7 9 10 11 12 12 10 11 9 6 6 13 14 11 9 8 11 14 11 11 14 15 13 13 12 10 11 14 15 14 15
25 25 26 24 22 20 13 5 8 14 9 4 7 11 13 14 14 12 5 2 3 3 2 0 2 3 6 4 2 2 3 4 5 9 10 10 9 5 3 3 2 5 6 5 4 3 7 9 7 8 9 10 11 10 11 10 6 6 7 10 12 13 14 14 13 8 3 5 8 12 13 10 7 9 12 13 14 16 14 12 14 13 10 11 13 15 15 14
25 24 25 22 17 15 9 4 11 12 4 5 12 14 14 14 13 9 4 3 3 3 3 1 0 3 6 6 5 2 3 5 4 6 7 7 7 4 5 5 2 4 3 1 2 3 4 7 7 8 9 8 8 8 10 10 7 6 8 9 11 12 14 15 14 9 5 7 10 10 10 10 8 7 9 13 16 17 16 14 14 13 13 14 14 15 17 18
25 24 24 20 12 9 8 8 12 9 5 10 15 15 15 14 10 5 4 3 2 2 1 1 2 3 5 8 8 2 3 5 3 5 4 3 4 2 3 7 5 5 4 3 5 4 2 6 7 8 8 6 6 8 9 10 8 8 9 10 10 11 12 12 12 9 8 7 9 10 8 7 8 6 7 12 16 17 18 18 17 14 14 14 14 16 18 19
26 25 21 16 9 4 6 8 9 8 11 14 15 16 17 12 7 3 5 2 2 1 1 0 3 4 5 7 7 4 4 3 1 4 6 3 2 1 1 5 3 5 4 5 8 6 4 6 7 6 5 4 6 9 9 10 10 10 11 10 10 10 11 11 9 8 8 8 9 12 8 5 6 6 8 10 13 15 16 17 17 13 12 12 13 17 18 17
26 23 17 13 6 2 3 8 8 9 14 15 15 17 16 8 4 5 3 0 1 1 1 1 3 4 5 6 6 5 5 5 4 4 4 4 4 1 0 1 1 4 5 5 10 9 6 6 6 5 5 6 9 10 9 10 12 11 10 10 8 8 8 8 6 6 8 8 10 15 13 8 6 5 8 9 12 16 14 11 11 11 12 12 12 14 16 16
26 19 13 10 5 3 4 5 6 10 13 14 16 15 9 4 3 4 1 2 2 3 2 2 3 4 7 7 6 5 5 6 5 3 3 3 2 2 1 2 2 2 4 5 7 7 6 7 6 6 7 8 9 9 11 12 13 11 7 7 6 5 5 5 5 6 7 7 9 13 14 11 8 6 7 11 15 17 15 11 10 12 13 13 11 12 13 15
22 15 10 7 6 7 6 4 6 10 12 15 15 9 3 4 3 1 2 4 2 2 2 3 4 7 10 9 6 5 5 4 4 4 4 2 2 2 3 3 1 1 4 5 4 4 4 7 7 7 8 9 7 7 9 10 9 9 6 5 5 4 4 5 6 5 6 7 9 11 11 10 9 7 9 15 15 14 14 14 13 13 13 13 13 13 13 14
17 11 9 7 8 9 7 5 8 10 13 15 10 4 4 4 2 2 3 3 1 1 3 4 6 10 11 7 5 5 4 3 3 4 3 2 2 3 4 5 5 3 3 4 3 4 4 5 7 7 7 7 7 6 6 6 4 6 6 5 5 5 5 5 5 5 5 7 12 14 11 7 7 7 10 16 15 12 13 14 14 14 15 15 15 15 14 15
14 10 9 7 8 8 5 3 6 8 12 12 6 4 5 3 2 3 3 3 2 4 3 4 9 12 7 4 4 2 1 3 3 2 2 1 1 3 3 5 8 6 4 4 4 4 3 5 6 7 4 5 8 8 8 7 5 5 6 6 6 5 4 4 4 4 5 6 11 13 10 6 6 7 9 14 14 13 13 11 11 13 15 15 15 15 15 16
13 9 8 7 8 5 2 1 3 6 8 7 4 4 4 1 3 3 2 3 2 5 6 6 8 8 5 3 3 2 4 2 4 1 3 3 2 3 3 4 9 9 6 5 3 3 4 6 5 6 5 3 5 7 7 7 6 5 5 6 6 6 4 4 5 4 4 6 8 8 6 5 6 7 8 11 13 13 15 15 13 12 13 13 13 14 15 16
14 9 6 6 7 4 0 2 1 3 4 4 5 3 1 2 3 2 2 3 2 6 10 8 4 3 4 3 3 3 3 1 4 4 3 4 4 5 4 4 8 11 8 4 2 2 3 5 4 2 5 5 6 7 6 5 4 3 3 4 6 6 5 4 5 3 1 4 6 5 4 5 6 8 8 8 12 14 15 17 17 15 14 13 13 13 14 15
16 11 5 5 6 2 3 4 2 2 3 4 3 1 2 3 3 2 3 2 2 4 6 5 1 1 3 3 3 3 1 1 2 4 2 2 3 4 6 5 7 11 10 6 3 2 2 5 5 4 8 8 4 6 8 8 7 4 3 3 3 3 4 2 3 3 1 2 5 6 7 5 5 7 6 5 12 15 15 16 17 18 16 15 15 13 14 16
14 10 6 5 5 4 4 3 2 2 3 3 1 2 2 3 4 4 4 2 1 2 3 2 2 2 2 3 3 3 3 3 2 2 3 2 3 3 3 4 7 11 11 9 4 2 1 3 6 5 7 7 4 4 6 6 7 7 4 2 2 1 2 2 2 2 2 2 3 5 9 7 5 5 6 6 10 15 17 16 18 19 17 15 15 14 15 17
7 5 4 2 8 6 2 3 3 4 3 2 1 2 2 4 6 6 5 2 2 1 3 3 3 3 3 3 4 4 4 5 3 1 2 2 2 4 3 3 6 10 12 11 6 2 2 1 4 4 3 3 3 2 2 4 4 3 2 2 1 2 2 2 3 2 2 1 3 3 5 6 5 5 7 9 9 12 15 15 16 19 18 15 15 15 15 16
3 3 1 5 8 4 1 4 4 4 2 0 1 3 3 4 6 8 5 4 4 3 3 3 3 3 4 4 5 4 3 6 5 1 2 3 2 5 6 4 4 7 12 13 7 1 2 2 2 5 3 2 1 2 3 3 2 1 2 2 2 1 1 2 3 3 3 2 1 3 4 5 5 5 7 11 10 10 11 11 12 13 14 14 15 15 16 16
3 3 2 6 7 4 3 4 3 1 1 1 2 3 3 4 7 8 5 6 4 4 4 5 5 4 4 4 5 5 3 5 4 3 3 3 3 3 5 6 5 4 7 11 6 2 1 1 1 4 4 1 4 5 2 1 2 3 4 4 3 3 2 3 2 3 5 4 3 3 5 6 6 5 7 9 9 10 10 10 9 9 11 13 14 16 17 16
1 2 2 6 7 4 3 2 2 1 1 2 3 4 5 5 7 7 3 4 3 3 3 5 6 5 4 4 5 6 5 6 4 3 4 4 6 5 5 5 5 2 4 5 2 1 2 2 0 4 5 6 11 11 8 7 6 4 3 2 2 1 2 2 2 2 4 3 3 3 5 7 7 6 8 10 9 9 10 9 9 9 10 12 13 15 16 16
1 3 4 6 9 3 3 1 3 1 1 4 4 5 6 5 5 5 4 2 3 1 1 3 4 4 3 3 3 6 6 5 5 5 5 4 5 10 11 8 4 3 4 4 1 1 3 2 1 3 5 7 11 10 8 8 3 2 3 1 2 1 2 3 3 2 3 2 2 2 5 8 7 3 4 12 13 10 8 8 10 10 8 9 13 15 16 17
1 3 3 4 8 3 2 1 3 3 4 5 6 7 6 4 4 6 7 3 3 2 1 3 3 4 4 3 3 6 6 4 4 6 5 4 3 8 14 11 4 1 3 5 3 2 1 2 2 2 3 2 1 1 3 5 1 2 3 2 3 4 4 3 4 3 4 3 3 2 5 8 6 6 7 9 13 12 9 7 10 10 8 9 11 14 15 16
3 2 2 2 3 1 0 2 2 4 5 7 9 10 7 4 4 6 9 6 3 4 3 3 2 3 4 4 5 7 7 5 4 4 4 5 5 2 6 8 6 2 5 10 10 5 3 2 2 2 2 3 3 3 3 3 3 1 2 1 2 5 5 3 2 3 5 4 2 3 6 8 9 9 10 12 10 9 10 8 7 8 8 10 10 11 14 15
2 1 3 4 2 2 1 2 2 2 4 7 8 7 6 7 6 6 8 6 2 4 3 3 2 3 4 4 6 8 6 5 6 5 5 6 4 2 1 5 8 8 11 15 13 6 2 3 4 4 4 4 4 4 4 3 1 3 3 2 2 6 8 3 0 3 6 5 4 6 6 7 12 11 10 13 12 8 8 7 8 7 7 10 10 10 13 14
2 1 2 3 3 3 2 2 4 3 3 4 4 4 6 9 8 6 8 6 0 2 2 2 1 2 5 4 4 6 6 6 6 6 6 5 4 5 6 5 8 15 18 16 14 8 2 2 5 6 7 7 5 5 6 5 4 4 3 2 3 6 7 3 3 6 6 4 6 8 4 4 8 9 9 12 12 9 8 7 7 9 8 8 9 11 14 15
2 0 2 2 2 2 2 4 6 7 8 5 3 3 7 9 9 8 9 8 5 1 0 3 3 4 7 4 2 4 6 8 5 2 3 4 3 6 7 5 2 4 9 8 9 8 2 1 5 6 7 9 7 6 7 5 3 4 4 4 5 5 5 3 5 9 7 5 6 7 6 6 7 7 8 10 11 9 8 9 6 6 8 8 9 12 14 15
3 1 2 2 1 2 3 7 8 8 9 6 2 3 7 10 11 9 7 8 9 3 2 4 10 9 7 5 3 3 4 5 6 3 2 4 4 4 4 4 6 5 3 2 5 6 1 1 4 5 4 5 5 4 2 1 2 4 4 5 6 5 6 6 7 10 9 7 6 5 9 9 7 5 7 10 10 9 7 8 6 2 7 9 11 13 14 15
3 1 2 2 2 4 4 5 6 6 7 5 4 5 7 9 11 12 9 8 9 5 2 7 15 16 8 6 6 6 6 5 8 7 4 4 4 3 2 2 2 4 3 0 3 5 4 3 2 1 1 3 4 3 3 2 2 4 3 2 3 3 5 5 5 5 5 6 7 7 8 8 5 4 5 7 9 9 9 9 8 6 2 8 11 11 13 15
6 4 4 2 3 4 3 4 5 4 4 4 4 6 8 9 11 14 11 7 6 6 8 12 17 15 7 4 7 11 12 10 11 14 11 7 5 4 3 2 3 5 5 3 1 1 4 2 1 3 3 4 5 6 7 5 2 2 2 3 3 3 4 5 5 3 4 5 3 3 4 5 5 4 3 5 7 10 11 8 7 8 5 5 10 10 12 13
10 7 5 2 3 4 4 5 5 3 2 4 6 8 8 10 12 13 10 5 6 10 11 12 15 11 6 6 8 12 13 12 13 14 12 9 8 7 6 7 6 4 3 3 3 1 1 1 1 1 2 4 6 7 9 5 3 1 2 0 1 4 4 6 6 5 6 5 3 3 3 7 5 2 2 5 6 8 10 7 5 7 6 1 9 9 10 11
Wind_Direction
2 360 360 359 358 356 354 352 349 347 346 344 343 341 339 339 337 336 335 334 333 332 331 331 331 331 331 332 332 334 334 329 324 319 307 279 249 234 256 290 299 301 298 298 304 310 324 321 335 342 324 282 218 201 208 186 184 196 175 219 224 223 215 184 184 181 149 168 234 247 233 246 277 318 337 49 65 90 53 354 334 25 98 136 139 141 140 135
358 357 357 355 354 353 350 348 346 345 344 342 341 339 337 337 335 333 332 332 332 330 331 330 330 330 330 332 332 336 334 327 316 300 290 281 248 234 263 303 301 301 301 297 309 343 353 316 334 347 335 241 232 201 203 188 184 203 192 221 226 214 203 186 189 181 163 181 226 252 248 248 241 288 325 337 37 81 90 40 345 22 86 123 136 139 138 139
357 356 354 353 352 351 350 347 346 344 341 340 338 337 336 335 333 331 330 330 330 329 329 329 330 329 330 331 333 337 333 324 313 289 304 47 152 140 13 325 312 308 307 307 6 3 317 296 308 329 314 261 254 205 203 200 192 204 208 229 226 199 211 203 187 192 190 174 200 244 249 253 245 229 280 306 12 97 136 118 42 132 134 142 144 141 142 145
358 355 353 353 352 350 349 345 344 342 339 337 334 334 333 331 331 329 328 328 327 328 328 328 329 329 330 331 333 337 332 322 309 282 59 95 108 83 28 348 347 333 333 344 360 329 304 292 292 297 254 278 268 221 211 209 201 193 206 228 213 172 219 224 193 192 190 181 204 229 237 245 254 235 213 247 279 248 191 156 165 182 162 158 154 148 150 151
356 354 352 351 349 346 344 342 340 338 336 334 332 331 328 327 327 326 327 326 326 327 326 328 328 329 331 331 333 336 333 327 308 247 119 105 92 45 12 4 7 17 6 352 325 322 317 293 276 268 248 263 258 227 223 218 210 224 223 224 203 177 208 222 208 198 185 191 211 219 224 230 245 241 211 201 225 240 233 189 175 176 170 169 163 156 154 152
354 351 349 346 344 342 340 339 337 336 334 332 330 328 325 324 323 322 323 324 325 325 326 328 328 330 331 332 336 337 335 303 278 230 192 138 63 14 13 11 360 331 334 334 324 324 324 305 120 130 252 269 254 236 234 225 207 235 242 221 201 198 208 213 214 206 194 201 212 211 215 219 229 251 244 224 220 214 227 213 180 182 178 171 160 153 156 157
350 347 346 343 342 340 339 338 336 334 332 330 328 326 324 322 320 319 318 320 322 322 325 326 327 330 331 337 349 64 129 269 269 259 237 234 70 22 11 5 351 326 308 314 316 312 317 302 224 180 254 284 269 257 265 253 224 231 239 225 204 207 216 218 223 217 207 216 218 210 207 206 215 234 241 242 232 190 213 214 179 191 186 168 159 159 164 166
345 343 342 340 339 338 337 336 334 332 330 328 326 325 324 321 319 317 315 316 317 320 322 323 327 330 332 340 355 21 277 260 274 271 225 217 122 45 5 358 338 316 303 295 288 280 301 293 248 204 237 254 264 275 295 297 244 234 233 226 211 211 219 219 229 238 238 241 231 222 220 207 202 214 228 242 233 188 202 209 175 180 193 180 169 165 166 169
343 341 339 338 337 336 336 334 333 332 329 327 325 323 321 319 317 316 315 313 313 316 318 321 325 326 330 335 336 305 276 267 295 272 190 197 190 237 318 346 322 308 302 294 288 280 268 274 249 236 274 272 270 272 281 281 243 242 238 231 222 221 220 214 226 238 243 250 244 237 238 222 198 202 230 250 257 227 201 184 173 174 189 192 177 167 167 169
342 340 338 337 336 336 334 333 332 329 327 324 321 319 317 316 315 313 313 310 309 311 315 320 322 324 330 337 346 266 259 287 69 152 165 300 297 275 268 281 300 300 303 306 302 286 240 256 275 292 306 289 272 272 265 253 267 285 279 261 241 230 220 209 219 228 235 245 242 236 239 232 206 197 220 236 248 250 223 170 176 179 184 189 180 172 172 173
340 338 336 336 335 334 332 331 329 327 326 322 320 317 316 316 313 311 309 307 307 310 316 317 318 323 321 327 318 232 210 134 144 176 289 313 306 290 276 269 280 296 302 308 300 293 285 285 307 319 289 313 316 301 278 261 282 300 309 305 270 242 228 213 215 221 221 239 243 233 233 232 218 213 217 221 235 241 223 167 174 182 183 187 182 176 176 177
340 338 336 335 333 333 332 330 329 327 325 323 320 318 317 315 312 309 305 305 307 311 315 312 314 316 306 294 233 242 255 266 267 280 296 302 294 288 287 280 276 280 282 280 282 288 290 298 327 336 266 338 336 312 300 305 314 303 303 309 288 261 234 221 217 221 217 224 236 235 238 230 216 217 217 221 236 239 219 169 174 184 185 187 182 176 180 178
339 338 336 334 334 333 332 331 331 328 325 323 320 318 317 314 311 308 305 307 310 311 312 309 307 297 296 274 249 263 282 289 289 293 290 284 277 276 287 285 274 270 267 259 266 276 282 290 306 299 286 323 301 291 304 311 323 312 297 253 271 278 238 220 216 223 222 218 224 230 242 230 217 217 211 211 226 236 235 188 176 184 183 184 183 179 184 178
338 337 335 334 334 333 332 331 331 328 326 323 320 320 320 318 318 317 315 313 311 312 310 305 291 277 266 260 269 281 302 302 290 286 278 270 277 280 277 270 264 267 265 259 261 266 270 277 282 281 276 233 258 304 307 305 324 317 304 258 222 243 235 215 210 217 224 222 213 222 241 235 223 217 210 207 211 222 234 213 176 180 182 182 186 183 187 182
338 336 335 335 334 332 332 331 330 329 327 325 325 327 328 330 330 326 323 316 313 316 304 291 249 249 271 266 277 297 320 301 275 282 287 268 267 273 267 262 264 268 265 259 258 259 258 263 270 267 266 254 287 309 306 309 318 197 257 252 213 221 235 221 212 210 218 226 209 211 237 239 230 224 209 202 203 202 224 227 182 179 184 180 183 183 188 191
337 335 335 334 333 333 332 331 331 330 328 330 335 337 340 346 341 327 329 330 9 351 291 285 208 201 247 277 295 313 304 266 270 297 304 260 245 245 256 264 271 271 265 255 249 248 248 246 238 209 234 277 270 261 307 314 297 206 190 234 225 218 226 222 219 211 212 222 213 208 228 239 230 231 225 202 193 190 214 229 181 177 187 181 181 181 181 180
336 335 334 334 334 333 331 332 331 330 332 338 342 343 355 8 357 341 51 76 38 307 280 287 169 184 247 276 302 320 299 290 307 299 275 244 232 234 253 265 276 288 286 260 240 231 231 223 191 206 219 220 194 159 238 260 256 251 207 231 242 228 222 213 214 214 210 217 219 213 225 234 221 226 236 224 185 180 211 227 184 176 186 185 184 180 176 170
335 334 334 334 333 332 332 332 330 332 336 342 347 348 0 17 15 68 84 54 356 324 291 293 168 177 265 274 300 320 315 324 326 307 252 231 236 232 244 251 300 346 346 326 236 205 191 217 169 186 223 201 190 164 200 226 223 227 215 217 255 245 232 217 211 211 207 213 221 221 230 235 224 218 237 235 195 175 208 219 181 177 185 185 185 180 177 173
335 334 334 334 334 333 332 332 332 335 338 343 353 358 11 21 22 95 71 16 356 347 280 266 180 183 289 287 297 310 314 320 325 317 243 200 222 230 238 252 307 350 341 8 291 216 169 201 172 182 219 210 207 201 209 224 224 231 235 226 255 256 247 232 225 221 209 212 219 224 236 239 229 221 229 244 218 187 210 211 169 178 185 183 186 183 179 178
334 334 335 334 333 332 332 333 334 339 339 337 343 351 10 15 10 47 345 330 245 228 257 256 225 239 274 284 293 308 316 320 326 322 298 233 197 239 248 241 303 322 249 219 274 281 185 195 216 210 224 228 228 226 228 239 244 257 265 257 259 261 266 254 236 229 214 213 216 219 236 239 231 223 218 231 232 210 222 216 176 179 184 184 190 185 180 185
334 335 336 334 333 331 331 332 334 342 340 334 336 341 12 7 351 311 325 302 251 234 239 249 244 249 260 271 285 300 319 318 314 309 300 290 212 286 316 168 216 279 253 222 236 298 255 204 231 227 227 232 240 249 251 254 255 259 264 264 263 256 269 280 258 237 217 214 216 214 230 237 231 226 220 220 227 230 227 217 192 183 183 186 195 192 185 184
336 335 335 334 332 329 329 331 333 343 345 343 342 336 351 358 351 336 336 308 285 249 225 244 245 252 261 266 274 280 287 290 296 300 298 300 157 163 256 169 201 249 246 220 222 277 286 240 239 237 233 232 238 246 250 254 251 249 254 259 264 261 274 291 283 250 223 220 225 215 225 235 229 223 224 220 221 230 229 214 197 185 182 185 192 194 183 163
338 336 336 333 330 328 329 330 332 344 349 345 336 324 348 359 359 354 351 287 295 290 229 234 231 247 262 265 267 258 239 247 264 281 282 283 174 173 200 215 235 252 244 209 197 210 242 245 241 239 235 233 238 240 242 252 252 242 242 245 252 256 254 272 286 267 233 226 230 224 228 235 231 223 225 227 222 227 229 216 203 188 183 188 189 185 174 164
338 336 335 332 329 329 330 332 339 351 348 343 338 338 353 354 357 0 359 209 292 296 248 222 213 228 248 265 259 210 215 229 218 265 267 247 203 178 186 219 247 260 250 233 219 211 234 244 242 235 225 223 232 238 236 240 248 244 240 238 244 249 245 243 269 289 281 240 227 228 243 242 226 218 221 229 225 225 225 217 212 203 188 184 185 183 176 170
338 336 334 333 330 328 333 340 349 352 344 347 355 348 348 346 349 360 8 150 301 277 250 227 199 249 268 260 236 196 219 235 216 247 246 216 204 180 197 213 221 243 241 240 251 253 252 253 248 242 233 222 226 233 231 226 236 246 240 237 241 246 248 248 258 278 309 266 224 213 233 244 215 209 214 217 220 225 224 214 212 216 195 175 179 182 178 177
336 335 335 333 329 331 341 351 343 345 337 337 352 339 336 338 341 353 21 62 324 280 284 309 159 318 315 283 229 235 278 257 238 254 247 226 213 195 226 236 200 231 225 227 251 251 250 252 249 251 245 233 231 232 229 221 228 245 232 233 238 240 245 247 252 259 258 272 245 217 224 236 222 213 211 209 215 220 221 212 208 210 197 176 179 179 174 177
333 333 335 332 331 337 338 322 332 338 329 328 340 337 334 333 332 343 37 60 345 315 312 310 155 334 327 324 340 3 267 280 300 276 245 218 217 195 212 241 251 230 192 152 261 226 238 257 255 258 258 246 238 237 231 218 222 244 230 227 234 235 239 240 245 250 240 270 283 262 241 234 228 224 211 205 213 220 220 218 212 205 196 184 179 176 173 176
332 332 335 334 336 326 295 294 315 321 328 333 337 340 338 333 328 347 76 75 324 314 305 277 325 341 328 322 326 324 257 293 312 279 264 189 201 161 213 241 242 237 195 161 239 244 240 257 253 256 264 258 243 240 231 217 222 240 232 229 234 238 243 242 239 244 244 255 276 278 267 241 229 227 215 203 207 218 221 221 218 205 194 184 177 177 177 179
331 333 336 335 335 311 279 281 286 309 339 338 338 336 329 328 343 44 87 82 298 287 145 313 342 336 327 328 320 306 304 309 205 275 323 328 234 121 194 239 249 265 235 189 235 248 226 246 260 264 268 271 267 257 237 219 223 235 233 234 239 240 246 248 239 238 240 239 251 261 263 252 238 217 208 205 206 213 216 220 219 202 188 184 180 182 180 180
333 335 337 328 320 331 303 281 280 327 344 337 333 329 323 328 37 62 42 30 265 287 180 31 349 324 318 320 306 297 291 275 258 271 305 298 280 327 295 270 318 280 261 233 245 250 248 265 279 268 253 260 272 277 268 240 225 227 229 233 245 245 245 252 243 229 235 234 239 248 249 251 256 222 201 206 211 211 209 216 218 197 186 187 187 185 180 178
336 337 331 311 297 287 290 287 307 338 339 330 328 327 332 359 73 78 33 240 246 307 324 329 315 310 315 310 293 287 274 269 271 249 245 252 280 334 349 316 341 276 263 258 258 266 264 262 265 253 244 254 270 283 287 267 235 220 219 216 231 248 248 256 244 217 225 235 230 238 246 246 249 243 214 214 217 213 204 199 203 201 193 190 189 188 183 180
338 337 319 286 263 254 253 277 324 334 331 330 332 336 38 48 24 88 262 278 289 312 310 310 316 319 314 307 286 267 262 263 240 213 223 227 239 240 202 210 169 185 249 243 264 297 265 245 250 253 247 248 264 280 286 277 241 214 211 196 202 223 229 238 241 220 214 235 233 230 239 244 246 246 223 216 216 211 205 198 195 195 194 193 191 188 186 184
341 335 313 268 246 251 257 295 321 326 327 332 343 13 81 67 350 263 282 299 314 307 305 307 310 308 305 302 279 256 248 253 232 208 213 199 232 242 222 206 165 148 231 222 229 264 274 266 242 239 247 227 226 248 266 274 238 202 201 193 191 198 209 224 238 230 208 229 239 233 233 247 257 254 224 214 209 200 203 205 199 195 192 193 193 189 187 186
344 334 312 268 246 261 277 310 321 319 325 338 6 54 57 59 270 285 301 279 275 301 309 318 311 304 295 266 250 281 337 276 255 182 189 157 228 248 240 212 185 182 228 228 210 207 245 281 231 211 217 192 206 222 228 247 259 225 201 194 198 196 206 223 223 220 206 219 236 232 226 223 231 239 221 211 208 199 200 203 202 207 201 194 193 187 183 185
345 331 308 274 255 273 294 279 307 314 328 358 51 65 55 59 265 296 295 256 282 303 295 298 301 296 297 272 255 24 50 298 293 297 203 189 198 219 228 210 193 194 213 222 220 188 213 258 244 220 227 219 237 243 235 246 261 253 216 198 206 197 201 240 228 210 199 214 230 225 219 219 227 251 238 213 206 202 206 205 201 211 212 202 199 189 180 183
342 335 310 269 261 283 259 176 238 314 342 38 63 41 76 209 247 261 260 264 293 308 306 304 282 263 308 309 296 353 63 183 286 304 241 213 220 212 211 214 195 196 199 196 226 198 202 256 279 280 270 258 248 258 263 253 250 274 244 217 224 200 189 241 253 249 190 217 232 219 229 252 249 266 269 224 204 202 209 213 207 207 208 203 204 196 183 183
342 341 318 263 262 255 156 171 188 358 18 68 72 338 233 233 259 240 241 264 292 303 307 312 285 222 290 293 291 308 290 204 294 309 273 239 254 221 205 214 202 200 197 183 217 220 180 263 286 279 274 276 263 268 273 252 236 248 248 255 275 192 169 202 251 281 289 228 241 217 221 240 232 250 271 220 202 206 210 215 213 209 204 200 202 195 182 182
337 336 315 264 221 185 158 174 162 51 48 75 24 284 225 230 250 245 248 234 198 281 278 276 258 220 239 282 287 274 273 281 291 292 278 242 259 252 209 205 204 205 199 179 192 259 175 265 285 257 250 278 304 290 284 263 231 222 239 327 34 158 185 164 206 250 233 249 277 221 211 220 215 235 256 224 204 209 211 211 212 210 204 199 199 191 180 180
337 342 334 189 174 181 200 169 120 65 60 58 331 273 245 250 255 260 262 214 158 226 252 239 232 241 250 259 268 274 280 275 255 251 268 193 230 272 260 219 214 210 199 178 180 242 113 142 288 280 255 299 312 254 247 279 257 227 276 331 122 190 206 182 210 238 206 226 296 244 213 223 220 215 237 236 218 213 211 208 210 207 200 196 194 188 182 180
13 8 310 163 164 185 177 131 93 59 67 40 258 251 274 274 272 269 238 182 168 191 230 236 216 253 272 261 268 279 270 267 264 227 228 195 213 277 262 221 230 225 201 184 172 124 69 110 258 292 333 10 290 215 187 214 214 170 239 234 190 206 254 242 237 235 215 186 256 269 250 246 239 209 225 242 233 214 205 198 204 201 190 189 187 184 183 180
15 22 237 182 177 190 123 96 59 88 166 279 248 253 279 268 280 281 216 179 203 203 209 243 238 246 272 276 276 278 273 276 262 196 232 228 179 264 262 216 227 248 191 179 173 135 123 147 225 298 324 324 252 264 277 252 215 186 201 201 181 192 235 273 264 232 232 207 179 260 273 266 249 202 211 245 245 228 215 196 199 198 183 183 185 183 183 178
32 29 243 192 190 195 94 58 310 148 158 282 245 255 285 274 277 285 239 184 216 223 222 247 251 255 270 274 276 285 291 288 271 220 238 234 186 195 250 240 231 223 135 145 172 141 123 119 163 281 273 258 265 275 285 285 270 238 220 186 151 185 211 246 266 247 249 229 190 243 279 276 259 210 204 231 241 239 227 199 201 215 195 182 183 183 179 174
91 320 286 208 197 191 56 355 301 29 223 261 260 266 282 279 271 285 290 211 176 198 258 247 248 246 247 253 278 302 304 287 269 251 238 241 209 205 225 243 241 201 126 103 84 74 86 106 211 280 280 271 275 279 277 279 264 205 243 154 119 221 237 233 251 248 257 250 173 228 276 270 277 304 233 231 233 243 239 203 206 226 216 187 181 180 177 175
285 280 284 209 202 211 33 299 297 322 288 291 306 292 278 261 259 288 300 271 165 148 235 244 238 227 239 249 243 272 286 270 259 262 254 268 261 217 222 227 226 186 130 132 159 168 142 153 180 282 308 311 290 278 277 295 351 159 231 191 165 228 263 288 295 282 268 251 163 185 261 255 275 344 335 271 249 249 255 226 209 219 215 196 185 179 176 175
318 265 282 263 212 202 145 222 283 311 313 327 321 306 298 280 262 282 294 283 179 154 201 245 247 232 251 263 260 265 255 227 247 277 281 292 309 265 206 203 204 204 163 169 172 160 157 173 170 199 180 142 158 181 201 260 313 285 242 192 215 256 260 259 304 294 275 269 201 207 243 269 297 325 334 322 301 270 266 247 214 220 214 194 185 176 170 168
358 27 326 319 346 32 272 264 353 348 330 339 324 308 315 314 300 298 308 307 161 156 211 249 256 257 257 260 284 292 266 233 255 280 294 295 296 313 190 198 209 204 186 178 171 148 133 186 201 208 195 170 178 205 205 191 236 287 300 335 303 280 270 244 110 278 257 250 252 236 233 277 304 316 328 329 325 306 283 247 202 207 214 192 176 166 163 163
35 64 18 340 329 356 329 322 21 11 313 319 309 289 303 314 319 330 332 328 101 145 246 253 200 231 265 289 307 295 284 277 266 267 285 282 273 291 285 253 219 206 198 184 170 165 165 211 216 217 229 229 211 221 229 206 208 243 265 276 251 266 275 252 226 245 226 202 246 255 257 286 292 304 325 324 317 319 313 277 213 188 190 184 165 158 160 161
34 101 58 34 299 321 339 319 325 318 303 285 248 278 308 326 340 341 328 319 319 11 223 290 295 248 250 272 299 280 296 310 295 260 289 283 299 320 307 318 4 193 195 179 170 176 164 219 210 201 226 240 231 233 236 219 232 240 227 233 235 245 262 246 247 251 228 197 229 254 284 289 273 289 313 310 304 309 310 297 269 180 160 152 148 153 157 159
26 347 354 27 300 254 269 286 292 302 308 303 290 325 331 336 337 328 318 316 316 319 146 297 313 305 264 222 207 249 282 312 306 295 309 298 307 331 315 326 14 46 80 128 196 205 220 286 219 196 218 249 247 253 251 70 323 273 229 222 227 238 250 243 251 256 239 218 221 257 291 288 263 269 299 299 299 308 309 311 329 81 139 146 149 153 158 162
31 334 329 346 291 269 264 282 297 300 308 324 340 338 335 332 329 326 321 309 305 315 358 318 315 315 293 210 198 237 239 247 271 263 260 302 309 316 312 295 348 7 6 241 208 218 228 244 239 149 3 308 301 322 356 10 270 245 235 240 260 289 290 268 255 262 261 244 232 242 272 280 261 247 274 289 302 325 332 336 357 13 99 141 144 152 159 164
4 330 330 313 289 307 300 305 328 315 311 354 358 335 332 328 326 325 314 284 282 317 331 319 314 314 300 215 214 243 249 247 252 248 244 252 257 264 285 288 334 345 322 304 348 241 217 206 35 40 20 302 303 338 330 309 251 223 315 5 356 328 301 277 268 272 279 263 230 224 256 270 280 275 273 295 318 334 332 337 5 0 353 122 132 146 159 164
357 337 341 322 276 319 336 327 337 334 321 352 342 327 323 316 319 326 320 298 309 322 321 316 314 315 316 305 285 272 267 258 251 250 245 236 233 240 255 261 274 293 278 297 354 336 220 124 98 58 29 290 298 322 314 318 53 24 285 82 327 292 276 283 292 286 262 237 148 113 245 255 259 242 265 307 329 328 316 321 6 357 332 140 134 137 152 159